Regional Weather Roundup
Issued by NWS

Home | Current Version | Previous Version | Text Only | Print | Product List | Glossary Off
Versions: 1 2 3 4 5 6 7 8 9 10 11 12 13 14 15 16 17 18 19 20 21 22 23 24 25 26 27 28 29 30 31 32 33 34 35 36 37 38 39 40 41 42 43 44 45 46 47 48 49 50

871
ASUS43 KMPX 231110
RWRMN
WEATHER ROUNDUP FOR MINNESOTA
NATIONAL WEATHER SERVICE TWIN CITIES/CHANHASSEN MN
600 AM CDT THU MAR 23 2017


NOTE: "FAIR" INDICATES FEW OR NO CLOUDS BELOW 12,000 FEET WITH NO
SIGNIFICANT WEATHER AND/OR OBSTRUCTIONS TO VISIBILITY. N/A MEANS
CURRENT SKY AND/OR WEATHER CONDITIONS ARE NOT AVAILABLE.

MNZ060>063-068>070-231200-
   Twin Cities Metro

CITY           SKY/WX    TMP DP  RH WIND       PRES   REMARKS
TWIN CITIES    CLOUDY    37  22  54 SE15      30.18F
ST PAUL        CLOUDY    37  23  56 SE13G22   30.19F
CRYSTAL        CLOUDY    37  21  52 SE14G25   30.15F
BLAINE         CLOUDY    37  23  56 SE15      30.16F
LAKEVILLE      CLOUDY    34  27  75 SE12      30.17F WCI  25
EDEN PRAIRIE   CLOUDY    38  23  55 SE13      30.16F
SOUTH ST PAUL  CLOUDY    37  23  55 SE7       30.18F
LAKE ELMO      CLOUDY    36  23  60 SE12G21   30.19F
$$
MNZ001>005-007-008-013>017-022>024-027-028-231200-
   Northwest Minnesota

CITY           SKY/WX    TMP DP  RH WIND       PRES   REMARKS
BEMIDJI        CLEAR     32  19  58 S12       29.98F WCI  23
HALLOCK        CLOUDY    30  27  86 SE15      29.87F WCI  19
ROSEAU         CLEAR     34  25  69 S12       29.92F WCI  25
WARROAD        CLOUDY    32  23  69 S9        29.94F WCI  24
THIEF RVR FALL   N/A    N/A N/A N/A MISG        N/A
CROOKSTON      CLOUDY    34  25  69 S13       29.92F WCI  25
FOSSTON        CLOUDY    34  21  60 S14G22    29.94F WCI  24
DETROIT LAKES  CLOUDY    34  23  64 S15       29.98F WCI  24
MOORHEAD       CLEAR     36  25  64 SE24G31   29.93F
PARK RAPIDS    CLOUDY    35  19  52 S20       30.00F WCI  24
MAHNOMEN       FAIR      34  22  62 S13G21    29.94F WCI  25
$$
MNZ006-009>011-018-025>026-231200-
   North Central Minnesota

CITY           SKY/WX    TMP DP  RH WIND       PRES   REMARKS
BAUDETTE       CLOUDY    34  18  52 S15G21    29.97F WCI  24
FLAG ISLAND    CLOUDY    30  23  74 SE18      29.94F WCI  18
INTL FALLS     CLOUDY    32  18  56 S9        30.03F WCI  24
WASKISH        CLEAR     32  19  59 S9G18     29.98F WCI  24
BIG FORK       CLOUDY    34  21  60 S15G23    30.04F WCI  24
LONGVILLE      CLOUDY    32  19  59 SE8       30.05F WCI  25
GRAND RAPIDS   CLOUDY    30  23  75 S21       30.08F WCI  17
CRANE LAKE     CLOUDY    28  19  69 S7G17     30.10F WCI  21
ORR            CLOUDY    30  18  59 SE9G21    30.05F WCI  22
COOK           CLOUDY    30  19  64 S6        30.10F WCI  24
WALKER         CLOUDY    33  19  56 SE9       30.01F WCI  25
$$
MNZ012-019>021-037-231200-
   Northeast Minnesota

CITY           SKY/WX    TMP DP  RH WIND       PRES   REMARKS
DULUTH         FLURRIES  28  26  92 SE14      30.16F WCI  17
ELY            CLOUDY    28  21  74 S13G21    30.13F WCI  18
HIBBING        CLOUDY    30  20  66 S10G23    30.10F WCI  21
EVELETH        CLOUDY    32  19  58 SE10      30.13F WCI  24
DULUTH HARBOR  CLOUDY    30  28  93 CALM      30.22F
TWO HARBORS    LGT SNOW  32  27  80 S8        30.19F WCI  25
SILVER BAY     LGT SNOW  30  27  86 S6        30.20F WCI  24
GRAND MARAIS     N/A     34  24  67 SW20      30.26F WCI  23
G MARAIS ARPRT LGT SNOW  25  16  68 S10G16    30.20S WCI  15
$$
MNZ029>031-032-039>041-046>048-054>057-064-231200-
   West Central Minnesota

CITY           SKY/WX    TMP DP  RH WIND       PRES   REMARKS
FERGUS FALLS   CLEAR     36  25  64 SE18      30.01F
WHEATON        CLOUDY    36  25  64 SE18      29.95F
MORRIS         CLOUDY    36  25  64 SE18      29.98F
ALEXANDRIA     CLOUDY    36  22  56 S18       30.02F
ELBOW LAKE     FAIR      34  24  67 E22G28    29.98F WCI  22
WADENA         CLOUDY    34  21  60 SE14G20   30.02F WCI  24
GLENWOOD       CLOUDY    36  23  60 SE14      30.03F
APPLETON       CLOUDY    37  25  60 SE13      29.99F
BENSON         CLOUDY    39  21  48 S14       30.03F
ORTONVILLE     CLOUDY    36  27  69 SE15      29.95F
MADISON        CLOUDY    39  30  70 S18       29.97F
WILLMAR        CLOUDY    37  25  60 SE20G25   30.06F
$$
MNZ033>034-036-042>043-049>051-058-059-231200-
   Central Minnesota

CITY           SKY/WX    TMP DP  RH WIND       PRES   REMARKS
ST CLOUD       CLOUDY    36  22  56 SE15      30.10F
SAUK CENTRE    CLOUDY    35  23  61 SE17      30.05F WCI  24
PAYNESVILLE      N/A     36  23  60 SE17G23   30.07F
AITKIN         CLOUDY    34  19  55 SE18G26   30.07F WCI  23
PINE RIVER     CLOUDY    34  21  60 SE16G23   30.08F WCI  23
BRAINERD       CLOUDY    33  20  58 S14       30.07F WCI  23
STAPLES        CLOUDY    34  19  55 S14       30.04F WCI  24
LONG PRAIRIE   CLOUDY    34  23  64 E15       30.05F WCI  24
LITTLE FALLS   CLOUDY    36  21  55 SE16G23   30.08F
LITCHFIELD     CLOUDY    37  25  60 SE12G21   30.09F
BUFFALO        CLOUDY    37  21  53 SE9       30.14F
MAPLE LAKE     CLOUDY    37  25  61 SE13G18   30.13F
HUTCHINSON     CLOUDY    37  26  65 SE14      30.11F
$$
MNZ037-044-045-052-053-231200-
   East Central Minnesota

CITY           SKY/WX    TMP DP  RH WIND       PRES   REMARKS
PRINCETON      CLOUDY    37  21  52 SE12      30.13F
MORA           CLOUDY    32  25  74 SE6       30.17F WCI  26
CAMBRIDGE      CLOUDY    37  23  56 SE7       30.14F
RUSH CITY      CLOUDY    32  21  63 SE8       30.17F WCI  25
MOOSE LAKE     CLOUDY    32  25  74 S8        30.14F WCI  25
HINCKLEY       CLOUDY    32  27  80 SE8       30.17F WCI  25
CLOQUET        CLOUDY    28  25  86 SE7       30.16F WCI  21
MCGREGOR       CLOUDY    32  27  80 SE12G20   30.12F WCI  23
$$
MNZ071>073-080-081-089-090-097-098-231200-
   Southwest Minnesota

CITY           SKY/WX    TMP DP  RH WIND       PRES   REMARKS
MONTEVIDEO     CLOUDY    37  27  65 S14       30.02F
GRANITE FALLS  CLOUDY    38  28  65 SE18      30.04S
CANBY          CLOUDY    40  27  59 S14       29.98F
MARSHALL       CLOUDY    38  25  59 S18       30.01F
REDWOOD FALLS  CLOUDY    37  24  59 SE20      30.05F
OLIVIA         CLOUDY    36  27  69 SE17G23   30.05F
PIPESTONE      CLOUDY    37  21  52 S15G21    29.97F
WINDOM         CLOUDY    36  25  64 SE17G26   30.05S
WORTHINGTON    CLOUDY    36  23  59 SE17      30.02F
JACKSON        CLOUDY    36  23  60 SE15G22   30.07S
TRACY          CLOUDY    38  26  60 S18G28    30.01F
SLAYTON        CLOUDY    35  25  67 SE17      30.01F WCI  25
$$
MNZ065>067-074>077-082>085-091>093-231200-
   South Central Minnesota

CITY           SKY/WX    TMP DP  RH WIND       PRES   REMARKS
MANKATO        CLOUDY    36  24  62 SE16      30.13F
NEW ULM        CLOUDY    36  25  64 SE13      30.09F
ST JAMES       CLOUDY    36  25  64 SE16      30.11S
FAIRMONT       CLOUDY    36  23  59 S17G26    30.10S
GLENCOE        CLOUDY    37  27  65 SE13      30.11F
FARIBAULT      CLOUDY    36  25  64 SE14      30.17F
OWATONNA       CLOUDY    36  21  55 SE16      30.15F
WASECA         CLOUDY    36  27  69 SE16      30.16S
ALBERT LEA     CLOUDY    34  21  60 SE14      30.15F WCI  24
$$
MNZ078>079-086>088-094>096-231200-
   Southeast Minnesota

CITY           SKY/WX    TMP DP  RH WIND       PRES   REMARKS
ROCHESTER      CLOUDY    33  23  66 SE20G28   30.18F WCI  21
RED WING       CLOUDY    37  19  48 SE13G18   30.21F
STANTON        CLOUDY    37  24  59 SE10      30.17F
DODGE CENTER   CLOUDY    34  23  64 SE17G24   30.17F WCI  23
WINONA         CLOUDY    36  27  69 SE10      30.26F
AUSTIN         CLOUDY    34  21  60 SE10G17   30.18F WCI  26
PRESTON        CLOUDY    33  20  60 SE13      30.22F WCI  24
$$
ABBREVIATIONS USED IN REMARKS
   TC - TEMPERATURES IN CELSIUS
  WCI - WIND CHILL INDEX
   HX - HEAT INDEX
  VSB - VISIBILITY
$$




USA.gov is the U.S. government's official web portal to all federal, state and local government web resources and services.